This is the latest recevied weather packets stored in our database for station/object KD8BMB. If no packets are shown the sender has not sent any weather packets the latest 10 day(s).
| Time | Temp. | Humidity | Pressure | Rain* | Wind** | Luminosity | Snow |
|---|---|---|---|---|---|---|---|
| 1777291618 | 10° C | 80% | 1019.8 hPa | 0 mm | - | 117 W/m² | - |
| 1777291315 | 9.44° C | 81% | 1019.7 hPa | 0 mm | - | 106 W/m² | - |
| 1777291011 | 9.44° C | 81% | 1019.5 hPa | 0 mm | - | 72 W/m² | - |
| 1777290708 | 9.44° C | 81% | 1019.8 hPa | 0 mm | - | 63 W/m² | - |
| 1777290404 | 8.89° C | 82% | 1019.7 hPa | 0 mm | - | 62 W/m² | - |
| 1777290099 | 8.89° C | 82% | 1019.6 hPa | 0 mm | - | 58 W/m² | - |
| 1777289797 | 8.89° C | 82% | 1019.4 hPa | 0 mm | - | 58 W/m² | - |
| 1777289493 | 8.33° C | 83% | 1019.7 hPa | 0 mm | - | 52 W/m² | - |
| 1777289189 | 8.33° C | 84% | 1019.7 hPa | 0 mm | - | 45 W/m² | - |
| 1777288886 | 7.78° C | 85% | 1019.8 hPa | 0 mm | - | 40 W/m² | - |
| 1777288582 | 6.67° C | 89% | 1019.9 hPa | 0 mm | - | 36 W/m² | - |
| 1777288279 | 6.11° C | 93% | 1019.8 hPa | 0 mm | - | 30 W/m² | - |
| 1777287976 | 5.56° C | 93% | 1019.9 hPa | 0 mm | - | 24 W/m² | - |
| 1777287673 | 5.56° C | 93% | 1019.9 hPa | 0 mm | - | 19 W/m² | - |
| 1777287368 | 5.56° C | 93% | 1019.7 hPa | 0 mm | - | 15 W/m² | - |
| 1777287064 | 5° C | 93% | 1019.7 hPa | 0 mm | - | 11 W/m² | - |
| 1777286762 | 5.56° C | 93% | 1019.6 hPa | 0 mm | - | 7 W/m² | - |
| 1777286460 | 5° C | 94% | 1019.7 hPa | 0 mm | - | 4 W/m² | - |
| 1777286156 | 5° C | 94% | 1019.7 hPa | 0 mm | - | 1 W/m² | - |
| 1777285854 | 5° C | 94% | 1019.6 hPa | 0 mm | - | 0 W/m² | - |
| 1777285550 | 5° C | 94% | 1019.6 hPa | 0 mm | - | 0 W/m² | - |
| 1777285248 | 5° C | 94% | 1019.6 hPa | 0 mm | - | 0 W/m² | - |
| 1777284946 | 5° C | 94% | 1019.6 hPa | 0 mm | - | 0 W/m² | - |
| 1777284642 | 5° C | 94% | 1019.8 hPa | 0 mm | - | 0 W/m² | - |
| 1777284339 | 5° C | 93% | 1019.8 hPa | 0 mm | - | 0 W/m² | - |
* Rain latest hour (hover to see other rain measurements)
** Current wind speed in m/s (hover to see current wind gust speed)